SAS62J EKCH-ESSA

Flight info

Callsign SAS62J
Flight time 0h 53m
Altitude 37000
Route KEMAX DCT RASMU DCT DETSO N873 ARS T317 ELTOK
Aircraft A320/M-SDE3FGHIJ1RWXYZ/ALB1

Departure

Time 2026-04-25 17:34
Airport Copenhagen Kastrup Airport (EKCH)

Arrival

Time 2026-04-25 18:27
Airport Stockholm-Arlanda Airport (ESSA)
Time Latitude Longitude Altitude Speed Heading
2026-04-25 17:05 55.62716 12.65325 18 ft 0 kts 17°
2026-04-25 17:25 55.62714 12.65324 17 ft 1 kts 17°
2026-04-25 17:25 55.62698 12.65316 19 ft 3 kts 17°
2026-04-25 17:25 55.62678 12.65306 19 ft 3 kts 16°
2026-04-25 17:26 55.62660 12.65300 19 ft 3 kts 349°
2026-04-25 17:26 55.62641 12.65309 21 ft 3 kts 338°
2026-04-25 17:26 55.62622 12.65321 19 ft 3 kts 353°
2026-04-25 17:26 55.62602 12.65322 21 ft 3 kts
2026-04-25 17:27 55.62595 12.65322 20 ft 0 kts 359°
2026-04-25 17:28 55.62603 12.65322 21 ft 3 kts 358°
2026-04-25 17:29 55.62637 12.65304 20 ft 7 kts 324°
2026-04-25 17:29 55.62633 12.65215 17 ft 9 kts 222°
2026-04-25 17:29 55.62565 12.65199 17 ft 10 kts 179°
2026-04-25 17:29 55.62491 12.65201 17 ft 11 kts 179°
2026-04-25 17:30 55.62411 12.65202 17 ft 12 kts 179°
2026-04-25 17:30 55.62322 12.65206 17 ft 13 kts 182°
2026-04-25 17:30 55.62274 12.65087 17 ft 14 kts 282°
2026-04-25 17:30 55.62324 12.64931 18 ft 15 kts 303°
2026-04-25 17:31 55.62334 12.64753 17 ft 16 kts 245°
2026-04-25 17:31 55.62284 12.64557 19 ft 19 kts 246°
2026-04-25 17:31 55.62211 12.64366 15 ft 20 kts 209°
2026-04-25 17:31 55.62097 12.64262 17 ft 19 kts 207°
2026-04-25 17:32 55.61975 12.64159 17 ft 21 kts 205°
2026-04-25 17:32 55.61846 12.64074 17 ft 15 kts 180°
2026-04-25 17:32 55.61734 12.64082 19 ft 17 kts 176°
2026-04-25 17:32 55.61627 12.64077 17 ft 13 kts 208°
2026-04-25 17:33 55.61615 12.64060 18 ft 0 kts 219°
2026-04-25 17:33 55.61611 12.64055 18 ft 5 kts 219°
2026-04-25 17:33 55.61402 12.63725 17 ft 76 kts 221°
2026-04-25 17:33 55.60852 12.62878 19 ft 132 kts 221°
2026-04-25 17:34 55.60051 12.61675 210 ft 159 kts 224°
2026-04-25 17:34 55.59137 12.60546 777 ft 163 kts 220°
2026-04-25 17:34 55.58184 12.59436 1331 ft 165 kts 231°
2026-04-25 17:34 55.57293 12.57985 1584 ft 184 kts 235°
2026-04-25 17:35 55.56290 12.56325 1788 ft 215 kts 224°
2026-04-25 17:35 55.54793 12.55227 2130 ft 253 kts 200°
2026-04-25 17:35 55.53026 12.54376 2659 ft 270 kts 205°
2026-04-25 17:35 55.51233 12.53253 3481 ft 276 kts 207°
2026-04-25 17:36 55.49420 12.52041 4376 ft 281 kts 208°
2026-04-25 17:36 55.47577 12.50812 5259 ft 286 kts 206°
2026-04-25 17:36 55.45577 12.50191 6107 ft 301 kts 182°
2026-04-25 17:36 55.43511 12.51010 6938 ft 311 kts 156°
2026-04-25 17:37 55.41773 12.53282 7751 ft 315 kts 128°
2026-04-25 17:37 55.40724 12.56619 8553 ft 312 kts 101°
2026-04-25 17:37 55.40538 12.60358 9330 ft 305 kts 75°
2026-04-25 17:37 55.41192 12.63861 10044 ft 294 kts 50°
2026-04-25 17:38 55.42492 12.66505 10741 ft 281 kts 27°
2026-04-25 17:38 55.43008 12.67145 10953 ft 280 kts 23°
2026-04-25 17:38 55.45960 12.70368 11274 ft 317 kts 22°
2026-04-25 17:38 55.47906 12.72464 11490 ft 336 kts 23°
2026-04-25 17:39 55.49919 12.74664 12066 ft 343 kts 23°
2026-04-25 17:39 55.51952 12.76921 12752 ft 347 kts 23°
2026-04-25 17:39 55.53999 12.79206 13452 ft 350 kts 23°
2026-04-25 17:39 55.56067 12.81513 14075 ft 353 kts 22°
2026-04-25 17:40 55.58146 12.83830 14666 ft 355 kts 21°
2026-04-25 17:40 55.60243 12.86165 15267 ft 357 kts 21°
2026-04-25 17:40 55.61639 12.87721 15672 ft 359 kts 20°
2026-04-25 17:40 55.63758 12.90082 16360 ft 361 kts 21°
2026-04-25 17:41 55.65892 12.92457 16999 ft 363 kts 21°
2026-04-25 17:41 55.68033 12.94845 17659 ft 365 kts 20°
2026-04-25 17:41 55.70190 12.97254 18299 ft 368 kts 20°
2026-04-25 17:41 55.72361 12.99679 18859 ft 370 kts 20°
2026-04-25 17:42 55.74550 13.02123 19403 ft 375 kts 20°
2026-04-25 17:42 55.76782 13.04612 19854 ft 381 kts 20°
2026-04-25 17:42 55.79037 13.07140 20359 ft 385 kts 20°
2026-04-25 17:42 55.81310 13.09702 20856 ft 388 kts 20°
2026-04-25 17:43 55.83628 13.12326 21340 ft 392 kts 20°
2026-04-25 17:43 55.85936 13.14942 21805 ft 394 kts 20°
2026-04-25 17:43 55.88255 13.17574 22381 ft 397 kts 21°
2026-04-25 17:43 55.90589 13.20239 22843 ft 400 kts 21°
2026-04-25 17:44 55.92932 13.22930 23281 ft 402 kts 21°
2026-04-25 17:44 55.95289 13.25655 23662 ft 405 kts 21°
2026-04-25 17:44 55.97657 13.28408 24019 ft 407 kts 21°
2026-04-25 17:44 56.00035 13.31174 24374 ft 409 kts 21°
2026-04-25 17:45 56.02426 13.33956 24723 ft 411 kts 22°
2026-04-25 17:45 56.04013 13.35807 24951 ft 412 kts 22°
2026-04-25 17:45 56.07234 13.39571 25408 ft 415 kts 22°
2026-04-25 17:45 56.09653 13.42406 25749 ft 417 kts 22°
2026-04-25 17:46 56.12087 13.45259 26167 ft 419 kts 23°
2026-04-25 17:46 56.14527 13.48124 26496 ft 421 kts 23°
2026-04-25 17:46 56.16986 13.51011 26822 ft 423 kts 23°
2026-04-25 17:46 56.19452 13.53911 27140 ft 425 kts 23°
2026-04-25 17:47 56.21934 13.56839 27460 ft 427 kts 23°
2026-04-25 17:47 56.24412 13.59772 27909 ft 426 kts 23°
2026-04-25 17:47 56.26881 13.62700 28373 ft 425 kts 23°
2026-04-25 17:47 56.29346 13.65624 28828 ft 424 kts 23°
2026-04-25 17:48 56.34265 13.71453 29775 ft 422 kts 23°
2026-04-25 17:48 56.36715 13.74366 30226 ft 422 kts 24°
2026-04-25 17:48 56.39172 13.77292 30538 ft 424 kts 24°
2026-04-25 17:49 56.41633 13.80224 30859 ft 424 kts 24°
2026-04-25 17:49 56.44097 13.83164 31211 ft 425 kts 24°
2026-04-25 17:49 56.46562 13.86110 31565 ft 425 kts 24°
2026-04-25 17:49 56.49027 13.89068 31926 ft 425 kts 25°
2026-04-25 17:50 56.51523 13.92074 32292 ft 426 kts 25°
2026-04-25 17:50 56.53988 13.95044 32663 ft 426 kts 25°
2026-04-25 17:50 56.56455 13.98018 33035 ft 426 kts 25°
2026-04-25 17:50 56.58927 14.01002 33408 ft 426 kts 25°
2026-04-25 17:51 56.61393 14.03983 33844 ft 426 kts 25°
2026-04-25 17:51 56.63860 14.06968 34186 ft 426 kts 26°
2026-04-25 17:51 56.66337 14.09971 34368 ft 430 kts 26°
2026-04-25 17:51 56.68830 14.12994 34575 ft 432 kts 26°
2026-04-25 17:52 56.71333 14.16034 34817 ft 433 kts 26°
2026-04-25 17:52 56.72991 14.18053 34989 ft 433 kts 26°
2026-04-25 17:52 56.76339 14.22142 35326 ft 434 kts 26°
2026-04-25 17:52 56.78842 14.25198 35573 ft 434 kts 26°
2026-04-25 17:53 56.81357 14.28276 35802 ft 434 kts 26°
2026-04-25 17:53 56.83864 14.31353 36078 ft 435 kts 27°
2026-04-25 17:53 56.86371 14.34439 36312 ft 435 kts 27°
2026-04-25 17:53 56.88881 14.37534 36533 ft 435 kts 27°
2026-04-25 17:54 56.91393 14.40628 36712 ft 436 kts 27°
2026-04-25 17:54 56.96460 14.46876 36789 ft 444 kts 27°
2026-04-25 17:55 57.01594 14.53243 36775 ft 446 kts 27°
2026-04-25 17:55 57.06735 14.59650 36775 ft 447 kts 27°
2026-04-25 17:56 57.11872 14.66072 36779 ft 446 kts 28°
2026-04-25 17:56 57.16996 14.72490 36781 ft 446 kts 28°
2026-04-25 17:57 57.22125 14.78931 36783 ft 446 kts 28°
2026-04-25 17:57 57.27255 14.85393 36787 ft 446 kts 28°
2026-04-25 17:58 57.32418 14.91918 36828 ft 446 kts 28°
2026-04-25 17:58 57.37526 14.98409 36782 ft 445 kts 28°
2026-04-25 17:59 57.42624 15.04917 36781 ft 445 kts 28°
2026-04-25 17:59 57.47725 15.11448 36785 ft 445 kts 28°
2026-04-25 18:00 57.52827 15.17991 36787 ft 445 kts 28°
2026-04-25 18:00 57.57936 15.24558 36791 ft 447 kts 29°
2026-04-25 18:01 57.63051 15.31160 36782 ft 448 kts 29°
2026-04-25 18:01 57.68178 15.37796 36784 ft 449 kts 29°
2026-04-25 18:02 57.73300 15.44471 36759 ft 449 kts 29°
2026-04-25 18:02 57.75861 15.47817 36509 ft 449 kts 29°
2026-04-25 18:02 57.78422 15.51163 36259 ft 448 kts 29°
2026-04-25 18:02 57.80979 15.54502 36026 ft 448 kts 29°
2026-04-25 18:03 57.83536 15.57854 35787 ft 448 kts 29°
2026-04-25 18:03 57.86083 15.61206 35559 ft 448 kts 29°
2026-04-25 18:03 57.88635 15.64571 35324 ft 448 kts 29°
2026-04-25 18:03 57.91182 15.67934 35093 ft 448 kts 29°
2026-04-25 18:04 57.93732 15.71307 34862 ft 448 kts 29°
2026-04-25 18:04 57.96282 15.74679 34636 ft 448 kts 29°
2026-04-25 18:04 57.98864 15.78096 34408 ft 448 kts 29°
2026-04-25 18:04 58.01410 15.81474 34185 ft 448 kts 29°
2026-04-25 18:05 58.03951 15.84852 33978 ft 447 kts 29°
2026-04-25 18:05 58.06493 15.88237 33780 ft 447 kts 29°
2026-04-25 18:05 58.09033 15.91625 33518 ft 446 kts 29°
2026-04-25 18:05 58.11570 15.95018 33156 ft 447 kts 29°
2026-04-25 18:06 58.14108 15.98419 32589 ft 447 kts 29°
2026-04-25 18:06 58.16639 16.01816 32039 ft 447 kts 29°
2026-04-25 18:06 58.19174 16.05223 31493 ft 447 kts 29°
2026-04-25 18:06 58.21707 16.08635 30967 ft 447 kts 29°
2026-04-25 18:07 58.24241 16.12056 30451 ft 447 kts 29°
2026-04-25 18:07 58.26778 16.15487 29926 ft 448 kts 29°
2026-04-25 18:07 58.29313 16.18923 29351 ft 448 kts 30°
2026-04-25 18:07 58.31853 16.22373 28725 ft 449 kts 30°
2026-04-25 18:08 58.34390 16.25825 28116 ft 449 kts 30°
2026-04-25 18:08 58.36931 16.29284 27507 ft 449 kts 30°
2026-04-25 18:08 58.39475 16.32747 26919 ft 449 kts 30°
2026-04-25 18:08 58.42017 16.36213 26338 ft 449 kts 31°
2026-04-25 18:09 58.44543 16.39665 25798 ft 445 kts 31°
2026-04-25 18:09 58.47055 16.43111 25249 ft 444 kts 31°
2026-04-25 18:09 58.49555 16.46550 24707 ft 441 kts 31°
2026-04-25 18:09 58.50391 16.47701 24525 ft 439 kts 31°
2026-04-25 18:10 58.54482 16.53348 23671 ft 432 kts 31°
2026-04-25 18:10 58.56903 16.56700 23114 ft 427 kts 32°
2026-04-25 18:10 58.59295 16.60021 22467 ft 422 kts 32°
2026-04-25 18:10 58.61692 16.63350 21825 ft 417 kts 31°
2026-04-25 18:11 58.64029 16.66592 21225 ft 413 kts 31°
2026-04-25 18:11 58.66342 16.69805 20612 ft 408 kts 31°
2026-04-25 18:11 58.68629 16.72985 20035 ft 403 kts 31°
2026-04-25 18:11 58.70888 16.76131 19461 ft 399 kts 31°
2026-04-25 18:12 58.73123 16.79253 18896 ft 395 kts 31°
2026-04-25 18:12 58.75333 16.82348 18336 ft 391 kts 31°
2026-04-25 18:12 58.77521 16.85420 17739 ft 387 kts 31°
2026-04-25 18:12 58.79685 16.88458 17108 ft 383 kts 31°
2026-04-25 18:13 58.81107 16.90456 16701 ft 381 kts 31°
2026-04-25 18:13 58.83237 16.93449 16080 ft 377 kts 31°
2026-04-25 18:13 58.85349 16.96424 15494 ft 374 kts 31°
2026-04-25 18:14 58.89513 17.02309 14332 ft 368 kts 31°
2026-04-25 18:14 58.91570 17.05229 13768 ft 365 kts 31°
2026-04-25 18:14 58.93610 17.08125 13164 ft 362 kts 31°
2026-04-25 18:14 58.95631 17.10991 12549 ft 358 kts 31°
2026-04-25 18:15 58.97654 17.13863 11932 ft 354 kts 32°
2026-04-25 18:15 58.99625 17.16669 11341 ft 349 kts 32°
2026-04-25 18:15 59.01568 17.19442 10834 ft 344 kts 32°
2026-04-25 18:15 59.03478 17.22177 10435 ft 339 kts 32°
2026-04-25 18:16 59.05364 17.24882 9933 ft 334 kts 32°
2026-04-25 18:16 59.07232 17.27564 9544 ft 334 kts 32°
2026-04-25 18:16 59.10951 17.32897 8691 ft 330 kts 32°
2026-04-25 18:17 59.12795 17.35539 8286 ft 328 kts 32°
2026-04-25 18:17 59.14624 17.38172 7878 ft 326 kts 32°
2026-04-25 18:17 59.16442 17.40797 7478 ft 324 kts 32°
2026-04-25 18:17 59.18244 17.43404 7119 ft 322 kts 32°
2026-04-25 18:18 59.20040 17.46003 6823 ft 321 kts 32°
2026-04-25 18:18 59.21831 17.48595 6549 ft 319 kts 32°
2026-04-25 18:18 59.23610 17.51177 6264 ft 318 kts 32°
2026-04-25 18:18 59.25357 17.53723 5967 ft 308 kts 32°
2026-04-25 18:19 59.27038 17.56185 5665 ft 296 kts 32°
2026-04-25 18:19 59.28660 17.58556 5379 ft 286 kts 32°
2026-04-25 18:19 59.30236 17.60853 5095 ft 278 kts 32°
2026-04-25 18:19 59.31766 17.63081 4796 ft 271 kts 32°
2026-04-25 18:20 59.33253 17.65253 4575 ft 262 kts 32°
2026-04-25 18:20 59.34687 17.67352 4386 ft 253 kts 32°
2026-04-25 18:20 59.36072 17.69382 4222 ft 244 kts 32°
2026-04-25 18:20 59.37414 17.71348 4035 ft 237 kts 32°
2026-04-25 18:21 59.38716 17.73253 3840 ft 231 kts 32°
2026-04-25 18:21 59.39986 17.75109 3659 ft 224 kts 32°
2026-04-25 18:21 59.41217 17.76917 3474 ft 218 kts 32°
2026-04-25 18:21 59.42411 17.78678 3329 ft 210 kts 32°
2026-04-25 18:22 59.43558 17.80371 3193 ft 202 kts 32°
2026-04-25 18:22 59.44306 17.81474 3095 ft 196 kts 32°
2026-04-25 18:22 59.45728 17.83574 2923 ft 187 kts 32°
2026-04-25 18:22 59.46784 17.84931 2786 ft 175 kts 17°
2026-04-25 18:23 59.47916 17.85550 2663 ft 165 kts 10°
2026-04-25 18:23 59.49029 17.86004 2591 ft 162 kts
2026-04-25 18:23 59.50132 17.86420 2520 ft 161 kts
2026-04-25 18:23 59.51222 17.86819 2495 ft 153 kts
2026-04-25 18:24 59.52237 17.87187 2413 ft 145 kts
2026-04-25 18:24 59.53213 17.87538 2276 ft 141 kts
2026-04-25 18:24 59.54178 17.87884 2102 ft 141 kts
2026-04-25 18:24 59.55135 17.88228 1921 ft 140 kts
2026-04-25 18:25 59.56100 17.88574 1717 ft 141 kts
2026-04-25 18:25 59.57066 17.88922 1512 ft 138 kts
2026-04-25 18:25 59.57988 17.89255 1317 ft 132 kts
2026-04-25 18:25 59.58887 17.89578 1129 ft 130 kts
2026-04-25 18:26 59.59782 17.89900 941 ft 131 kts
2026-04-25 18:26 59.60668 17.90220 751 ft 129 kts
2026-04-25 18:26 59.61558 17.90540 580 ft 130 kts
2026-04-25 18:26 59.62449 17.90861 404 ft 131 kts
2026-04-25 18:27 59.63347 17.91182 238 ft 131 kts
2026-04-25 18:27 59.64213 17.91528 106 ft 121 kts 356°
2026-04-25 18:27 59.64849 17.91691 107 ft 74 kts 12°
2026-04-25 18:27 59.65177 17.91827 104 ft 18 kts 12°
2026-04-25 18:28 59.65283 17.91871 104 ft 16 kts 12°
2026-04-25 18:28 59.65402 17.91919 106 ft 18 kts 12°
2026-04-25 18:28 59.65530 17.91973 107 ft 20 kts 13°
2026-04-25 18:29 59.65780 17.92228 107 ft 13 kts 48°
2026-04-25 18:29 59.65791 17.92377 105 ft 11 kts 123°
2026-04-25 18:30 59.65587 17.92501 102 ft 11 kts 166°
2026-04-25 18:30 59.65556 17.92517 103 ft 5 kts 165°
2026-04-25 18:30 59.65512 17.92547 105 ft 8 kts 157°
2026-04-25 18:30 59.65463 17.92598 108 ft 7 kts 151°
2026-04-25 18:31 59.65420 17.92643 111 ft 7 kts 152°
2026-04-25 18:31 59.65380 17.92689 112 ft 6 kts 141°
2026-04-25 18:31 59.65380 17.92774 112 ft 7 kts 72°
2026-04-25 18:31 59.65395 17.92869 111 ft 5 kts 83°
2026-04-25 18:32 59.65377 17.92931 111 ft 1 kts 137°
2026-04-25 18:32 59.65369 17.92946 112 ft 0 kts 138°
2026-04-25 18:32 59.65365 17.92953 112 ft 0 kts 138°